Home   Weather   Osterholz-Scharmbeck   Past weeks
Flag for Germany

Past Weather in Osterholz-Scharmbeck, Lower Saxony, Germany — Yesterday and Last 2 Weeks

Now
61 °F

Passing clouds.


Feels Like: 61 °F
Forecast: 60 / 42 °F
Wind: 10 mph from Northwest

Location: Bremen Airport

Current Time: Sep 19, 2019 at 4:56:58 pm

Latest Report: Sep 19, 2019 at 4:20 pm


Visibility: N/A

Pressure: 30.39 "Hg

Humidity: 45%

Dew Point: 39 °F

Location of Osterholz-ScharmbeckLocation

Past Weather in Osterholz-Scharmbeck — Graph

°F

Osterholz-Scharmbeck Temperature Yesterday

Maximum temperature yesterday: 61 °F (at 2:50 pm)
Minimum temperature yesterday: 43 °F (at 7:50 am)
Average temperature yesterday: 52 °F

High & Low Weather Summary for the Past Weeks

 TemperatureHumidityPressure
High72 °F (Sep 12, 3:50 pm)100% (Sep 7, 7:20 am)30.57 "Hg (Sep 7, 7:20 am)
Low39 °F (Sep 19, 7:20 am)42% (Sep 17, 1:50 pm)29.86 "Hg (Sep 4, 3:20 pm)
Average56 °F79%30.15 "Hg
* Reported Sep 4 3:20 pm — Sep 19 3:20 pm, Osterholz-Scharmbeck. Weather by CustomWeather, © 2019

Note: Actual official high and low records may vary slightly from our data, if they occured in-between our weather recording intervals... More about our weather records

Advertising

Osterholz-Scharmbeck Weather History for the Previous 24 Hours

Scroll right to see more
 ConditionsComfort  
Time TempWeatherWind HumidityBarometerVisibility
3:20 pm
Thu, Sep 19
61 °FScattered clouds.10 mph48%30.39 "HgN/A
2:50 pm63 °FScattered clouds.10 mph42%30.39 "HgN/A
2:20 pm63 °FScattered clouds.12 mph45%30.39 "HgN/A
1:50 pm61 °FScattered clouds.14 mph45%30.42 "HgN/A
1:20 pm59 °FScattered clouds.10 mph51%30.42 "HgN/A
12:50 pm61 °FScattered clouds.13 mph48%30.42 "HgN/A
12:20 pm57 °FScattered clouds.13 mph55%30.42 "HgN/A
11:50 am59 °FScattered clouds.9 mph59%30.42 "HgN/A
11:20 am57 °FPassing clouds.10 mph63%30.39 "HgN/A
10:50 am55 °FSunny.10 mph67%30.39 "Hg10 mi
10:20 am54 °FSunny.7 mph72%30.39 "Hg10 mi
9:50 am52 °FPassing clouds.6 mph77%30.39 "HgN/A
9:20 am48 °FPassing clouds.3 mph82%30.39 "HgN/A
8:50 am46 °FPassing clouds.3 mph87%30.39 "HgN/A
8:20 am43 °FSunny.3 mph93%30.36 "Hg10 mi
7:50 am41 °FSunny.5 mph93%30.36 "Hg10 mi
7:20 am39 °FPassing clouds.3 mph93%30.36 "HgN/A
6:50 am41 °FPassing clouds.3 mph93%30.36 "HgN/A
6:20 am43 °FClear.3 mph87%30.33 "Hg10 mi
5:50 am41 °FClear.3 mph93%30.33 "Hg10 mi
5:20 am41 °FPassing clouds.5 mph93%30.33 "HgN/A
4:50 am41 °FPassing clouds.3 mph93%30.33 "HgN/A
4:20 am41 °FClear.3 mph93%30.33 "Hg10 mi
3:20 am41 °FClear.3 mph93%30.33 "Hg10 mi
2:50 am43 °FClear.3 mph87%30.33 "Hg10 mi
2:20 am43 °FClear.3 mph87%30.33 "Hg10 mi
1:50 am45 °FClear.6 mph87%30.33 "Hg10 mi
1:20 am45 °FClear.2 mph87%30.33 "Hg10 mi
12:50 am45 °FClear.3 mph87%30.33 "Hg10 mi
12:20 am45 °FClear.3 mph87%30.33 "Hg10 mi
11:50 pm
Wed, Sep 18
46 °FPassing clouds.6 mph82%30.33 "HgN/A
11:20 pm45 °FClear.3 mph87%30.33 "Hg10 mi
10:50 pm45 °FPassing clouds.5 mph87%30.30 "HgN/A
10:20 pm46 °FPassing clouds.5 mph82%30.30 "HgN/A
9:50 pm46 °FPassing clouds.6 mph82%30.30 "HgN/A
9:20 pm50 °FPassing clouds.7 mph76%30.30 "HgN/A
8:50 pm52 °FSprinkles. Passing clouds.6 mph72%30.30 "HgN/A
8:20 pm48 °FPassing clouds.6 mph76%30.30 "HgN/A
7:50 pm55 °FPassing clouds.9 mph59%30.27 "HgN/A
7:20 pm55 °FScattered clouds.13 mph59%30.27 "HgN/A
6:50 pm55 °FPassing clouds.12 mph59%30.27 "HgN/A
6:20 pm57 °FPassing clouds.13 mph51%30.27 "HgN/A
5:50 pm59 °FPassing clouds.15 mph51%30.27 "HgN/A
5:20 pm59 °FPassing clouds.15 mph48%30.27 "HgN/A
4:50 pm59 °FPassing clouds.14 mph48%30.27 "HgN/A
4:20 pm59 °FPassing clouds.15 mph51%30.27 "HgN/A
Weather by CustomWeather, © 2019

See weather overview